User: anonymous   Login
Location: Great Northern Moose Lodge
(44.6765°N, 71.1811°W)
Time: 02:16:41
(UTC-04:00)
Language:

Terra - Orbit

View from above orbital plane
View from above orbital plane
View from above satellite
View from above satellite

Ground track
Ground track

The orbit data is extracted from the following two-line orbital elements,

1 25994U 99068A   16237.75885242  .00000008  00000-0  11723-4 0  9997
2 25994  98.2047 311.0806 0000886  54.2303 305.8960 14.57125967887505
Epoch (UTC): 24 August 2016 18:12:44
Eccentricity: 0.0000886
inclination: 98.2047°
perigee height: 702 km
apogee height: 703 km
right ascension of ascending node: 311.0806°
argument of perigee: 54.2303°
revolutions per day: 14.57125967
mean anomaly at epoch: 305.8960°
orbit number at epoch: 88750

The dashed part of the orbit path shows where the satellite is in the earth's shadow,  

DLR